Weather History for KSRQ - February, 2013

Change the Weather History Date:

Friday, February 22, 2013

  Actual Average Record
Temperature  
Mean Temperature 71 °F 64 °F  
Max Temperature 82 °F 74 °F 87 °F (1990)
Min Temperature 60 °F 54 °F 30 °F (1977)
Degree Days  
Heating Degree Days 0 3  
Month to date heating degree days 79 80  
Since 1 July heating degree days 243 400  
Cooling Degree Days 6 2  
Month to date cooling degree days 51 40  
Year to date cooling degree days 168 92  
Growing Degree Days 20 (Base 50)    
Moisture  
Dew Point 65 °F    
Average Humidity 83    
Maximum Humidity 100    
Minimum Humidity 62    
Precipitation  
Precipitation 0.00 in 0.13 in 1.22 in (1987)
Month to date precipitation 0.54 1.84  
Year to date precipitation 0.74 4.33  
Sea Level Pressure  
Sea Level Pressure 30.03 in    
Wind  
Wind Speed 10 mph (SSE)    
Max Wind Speed 22 mph    
Max Gust Speed 28 mph    
Visibility 10 miles    
Events      
T = Trace of Precipitation, MM = Missing Value Source: NWS Daily Summary

Daily Weather History Graph

Daily Weather History Graph

Search for Another Location

Airport or City:

Trip Planner

Search our weather history database for the weather conditions in past years. The results will help you decide how hot, cold, wet, or windy it might be!

Date:

Astronomy

Feb. 22, 2013 Rise Set
Actual Time 7:00 AM EST 6:26 PM EST
Civil Twilight 6:37 AM EST 6:50 PM EST
Nautical Twilight 6:10 AM EST 7:17 PM EST
Astronomical Twilight 5:43 AM EST 7:44 PM EST
Moon 3:46 PM EST (2/22) 4:34 AM EST (2/22)
Length of Visible Light 12h 13m
Length of Day
11h 25m
Waxing Gibbous, 90% of the Moon is Illuminated
Feb 22
Waxing Gibbous
Feb 25
Full
Mar 4
Last Quarter
Mar 11
New
Mar 19
First Quarter

Hourly Weather History & Observations

Time (EST) Temp. Heat Index Dew Point Humidity Pressure Visibility Wind Dir Wind Speed Gust Speed Precip Events Conditions
12:53 AM 64.0 °F - 62.1 °F 93% 30.03 in 10.0 mi Calm Calm - N/A   Clear
1:53 AM 63.0 °F - 61.0 °F 93% 30.01 in 10.0 mi SSE 6.9 mph - N/A   Clear
2:53 AM 64.0 °F - 62.1 °F 93% 30.01 in 10.0 mi East 3.5 mph - N/A   Clear
3:53 AM 61.0 °F - 60.1 °F 97% 30.01 in 10.0 mi ESE 5.8 mph - N/A   Clear
4:53 AM 62.1 °F - 60.1 °F 93% 30.02 in 10.0 mi East 4.6 mph - N/A   Clear
5:53 AM 60.1 °F - 59.0 °F 96% 30.03 in 9.0 mi ESE 5.8 mph - N/A   Clear
6:53 AM 62.1 °F - 61.0 °F 96% 30.04 in 7.0 mi ESE 6.9 mph - N/A   Clear
7:53 AM 66.0 °F - 64.0 °F 93% 30.06 in 9.0 mi SE 9.2 mph - N/A   Clear
8:53 AM 72.0 °F - 68.0 °F 87% 30.06 in 10.0 mi SE 10.4 mph - N/A   Clear
9:53 AM 75.9 °F - 66.9 °F 74% 30.06 in 10.0 mi SSE 12.7 mph - N/A   Clear
10:53 AM 81.0 °F 83.3 °F 66.9 °F 62% 30.06 in 10.0 mi SSE 15.0 mph - N/A   Partly Cloudy
11:33 AM 80.6 °F 82.7 °F 66.2 °F 61% 30.05 in 10.0 mi SSW 16.1 mph - N/A   Mostly Cloudy
12:53 PM 81.0 °F 83.3 °F 66.9 °F 62% 30.03 in 10.0 mi SSW 18.4 mph - N/A   Clear
1:53 PM 81.0 °F 83.8 °F 68.0 °F 65% 30.02 in 10.0 mi South 15.0 mph - N/A   Clear
2:53 PM 81.0 °F 83.8 °F 68.0 °F 65% 30.00 in 10.0 mi South 16.1 mph 24.2 mph N/A   Clear
3:53 PM 79.0 °F - 68.0 °F 69% 30.00 in 10.0 mi South 18.4 mph 24.2 mph N/A   Clear
4:53 PM 77.0 °F - 68.0 °F 74% 30.00 in 10.0 mi South 16.1 mph - N/A   Clear
5:53 PM 73.9 °F - 66.9 °F 79% 30.00 in 10.0 mi SSW 10.4 mph - N/A   Clear
6:53 PM 72.0 °F - 68.0 °F 87% 30.02 in 10.0 mi SSW 10.4 mph - N/A   Clear
7:53 PM 71.1 °F - 68.0 °F 90% 30.02 in 10.0 mi South 8.1 mph - N/A   Clear
8:53 PM 71.1 °F - 68.0 °F 90% 30.04 in 10.0 mi South 8.1 mph - N/A   Clear
9:53 PM 71.1 °F - 68.0 °F 90% 30.04 in 10.0 mi South 10.4 mph - N/A   Clear
10:53 PM 71.1 °F - 68.0 °F 90% 30.03 in 10.0 mi South 11.5 mph - N/A   Clear
11:53 PM 72.0 °F - 68.0 °F 87% 30.01 in 10.0 mi South 10.4 mph - N/A   Clear